FLTSATCOM 8 (USA 46)

Last updated on Wed Sep 09 2026 00:02:57 GMT+0000 (Coordinated Universal Time)

1 20253U 89077A 26250.68587194 -.00000378 00000+0 00000+0 0 9993 2 20253 12.4005 350.6553 0002781 207.7275 161.0095 1.00276969261394
UTC large
Height (km)
Speed (km/s)
/
Latitude / Longitude
Inclination (degrees)
Orbital Period (minutes)
Azimuth
Elevation
Range (km)
Doppler Factor

Next 0 passes for location: London (51.5072 / 0.1276)

No passes found over London.
FLTSATCOM 8 (USA 46)